Houghton Lake, MI

9:03 AM EDT on July 29, 2016 (GMT -0400)
Roscommon County

Weather History for KHTL - February, 2013

Change the Weather History Date:

Sunday, February 10, 2013

  Actual Average Record
Temperature  
Mean Temperature 22 °F 19 °F  
Max Temperature 36 °F 28 °F 54 °F (2009)
Min Temperature 8 °F 10 °F -29 °F (1936)
Degree Days  
Heating Degree Days 43 46  
Month to date heating degree days 519 467  
Since 1 July heating degree days 4638 5079  
Moisture  
Dew Point 21 °F    
Average Humidity 82    
Maximum Humidity 100    
Minimum Humidity 63    
Precipitation  
Precipitation 0.14 in 0.04 in 0.59 in (1981)
Month to date precipitation 0.83 0.38  
Year to date precipitation 4.39 1.89  
Snow  
Snow T in 0.40 in 6.50 in (1981)
Month to date snowfall 10.1 4.8  
Since 1 July snowfall 43.2 46.9  
Snow Depth 12.00 in    
Sea Level Pressure  
Sea Level Pressure 29.92 in    
Wind  
Wind Speed 9 mph (ESE)    
Max Wind Speed 23 mph    
Max Gust Speed 33 mph    
Visibility 8 miles    
Events Rain    
T = Trace of Precipitation, MM = Missing Value Source: NWS Daily Summary

Daily Weather History Graph

Daily Weather History Graph

Search for Another Location

Airport or City:

Trip Planner

Search our weather history database for the weather conditions in past years. The results will help you decide how hot, cold, wet, or windy it might be!

Date:

Astronomy

Feb. 10, 2013 Rise Set
Actual Time 7:45 AM EST 6:01 PM EST
Civil Twilight 7:15 AM EST 6:31 PM EST
Nautical Twilight 6:40 AM EST 7:05 PM EST
Astronomical Twilight 6:07 AM EST 7:39 PM EST
Moon 7:31 AM EST (2/10) 6:55 PM EST (2/10)
Length of Visible Light 11h 16m
Length of Day
10h 15m
New Moon, 0% of the Moon is Illuminated
Feb 10
New Moon
Feb 17
First Quarter
Feb 25
Full
Mar 4
Last Quarter
Mar 11
New

Hourly Weather History & Observations

Time (EST) Temp. Windchill Dew Point Humidity Pressure Visibility Wind Dir Wind Speed Gust Speed Precip Events Conditions
12:53 AM 19.9 °F 8.6 °F 12.9 °F 74% 30.25 in 10.0 mi South 10.4 mph - N/A   Scattered Clouds
1:53 AM 18.0 °F 9.8 °F 12.9 °F 81% 30.22 in 10.0 mi South 5.8 mph - N/A   Clear
2:53 AM 12.9 °F 5.2 °F 9.0 °F 84% 30.21 in 10.0 mi East 4.6 mph - N/A   Clear
3:53 AM 12.9 °F 6.9 °F 10.9 °F 92% 30.21 in 8.0 mi East 3.5 mph - N/A   Clear
4:53 AM 8.1 °F - 5.0 °F 87% 30.20 in 5.0 mi Calm Calm - N/A   Partly Cloudy
5:53 AM 10.9 °F 4.7 °F 10.0 °F 96% 30.20 in 5.0 mi East 3.5 mph - N/A   Clear
6:53 AM 12.0 °F 5.9 °F 9.0 °F 88% 30.19 in 6.0 mi East 3.5 mph - N/A   Clear
7:53 AM 10.0 °F 0.4 °F 7.0 °F 87% 30.19 in 4.0 mi East 5.8 mph - N/A   Clear
8:53 AM 14.0 °F 5.1 °F 10.4 °F 86% 30.09 in 6.0 mi East 5.8 mph - N/A   Clear
9:53 AM 21.9 °F 12.5 °F 18.0 °F 85% 30.13 in 10.0 mi SE 8.1 mph - N/A   Scattered Clouds
10:53 AM 26.1 °F 19.4 °F 19.0 °F 75% 30.06 in 10.0 mi East 5.8 mph - N/A   Clear
11:53 AM 30.9 °F 24.3 °F 19.9 °F 64% 30.06 in 10.0 mi ESE 6.9 mph - N/A   Partly Cloudy
12:53 PM 30.0 °F 21.7 °F 19.0 °F 64% 30.03 in 10.0 mi ESE 9.2 mph - N/A   Overcast
1:53 PM 30.0 °F 22.4 °F 19.9 °F 66% 29.97 in 10.0 mi ESE 8.1 mph - N/A   Overcast
2:38 PM 30.2 °F 21.9 °F 21.2 °F 69% 29.88 in 10.0 mi ESE 9.2 mph - N/A   Overcast
2:51 PM 30.2 °F 21.3 °F 21.2 °F 69% 29.88 in 10.0 mi SE 10.4 mph - N/A   Overcast
2:53 PM 30.9 °F 22.2 °F 21.0 °F 67% 29.94 in 10.0 mi ESE 10.4 mph - N/A   Overcast
3:03 PM 30.2 °F 21.9 °F 21.2 °F 69% 29.88 in 10.0 mi ESE 9.2 mph - N/A   Overcast
3:33 PM 32.0 °F 24.8 °F 21.2 °F 64% 29.86 in 10.0 mi SE 8.1 mph - N/A   Overcast
3:53 PM 30.9 °F 22.2 °F 21.0 °F 67% 29.89 in 10.0 mi ESE 10.4 mph - N/A   Overcast
4:53 PM 32.0 °F 23.6 °F 21.9 °F 66% 29.86 in 10.0 mi ESE 10.4 mph 18.4 mph N/A   Overcast
5:03 PM 32.0 °F 23.0 °F 21.2 °F 64% 29.80 in 9.0 mi ESE 11.5 mph - N/A   Overcast
5:31 PM 32.0 °F 22.1 °F 24.8 °F 75% 29.76 in 9.0 mi ESE 13.8 mph - 0.01 in   Overcast
5:53 PM 30.9 °F 19.8 °F 25.0 °F 79% 29.81 in 8.0 mi ESE 16.1 mph 21.9 mph 0.01 in Rain Light Freezing Rain
6:12 PM 30.2 °F 19.3 °F 24.8 °F 80% 29.74 in 10.0 mi ESE 15.0 mph 21.9 mph 0.00 in   Overcast
6:26 PM 32.0 °F 22.1 °F 26.6 °F 80% 29.74 in 7.0 mi ESE 13.8 mph 21.9 mph 0.00 in Rain Light Freezing Rain
6:39 PM 30.2 °F 20.2 °F 26.6 °F 86% 29.74 in 7.0 mi ESE 12.7 mph 19.6 mph 0.01 in Rain Light Freezing Rain
6:49 PM 30.2 °F 19.3 °F 26.6 °F 86% 29.72 in 4.0 mi ESE 15.0 mph 23.0 mph 0.02 in Rain Light Freezing Rain
6:53 PM 30.9 °F 20.2 °F 27.0 °F 85% 29.77 in 4.0 mi ESE 15.0 mph 23.0 mph 0.03 in Rain Light Freezing Rain
7:23 PM 32.0 °F 21.6 °F 28.4 °F 87% 29.70 in 9.0 mi ESE 15.0 mph 21.9 mph 0.01 in Rain Light Freezing Rain
7:53 PM 33.1 °F 22.2 °F 28.9 °F 85% 29.75 in 4.0 mi SE 17.3 mph 26.5 mph 0.01 in Rain Light Freezing Rain
8:06 PM 33.8 °F 23.5 °F 30.2 °F 87% 29.68 in 4.0 mi ESE 16.1 mph 26.5 mph 0.00 in Rain Light Freezing Rain
8:37 PM 33.8 °F 22.8 °F 30.2 °F 87% 29.66 in 5.0 mi SSE 18.4 mph 33.4 mph 0.00 in Rain Light Rain
8:53 PM 34.0 °F 23.0 °F 30.9 °F 89% 29.70 in 5.0 mi SE 18.4 mph 32.2 mph 0.01 in Rain Light Rain
9:53 PM 34.0 °F 25.5 °F 32.0 °F 92% 29.66 in 5.0 mi SE 11.5 mph - 0.04 in Rain Light Rain
10:53 PM 35.1 °F 26.9 °F 33.1 °F 92% 29.62 in 7.0 mi SSE 11.5 mph 28.8 mph 0.04 in Rain Light Rain
11:36 PM 35.6 °F 28.0 °F 33.8 °F 93% 29.56 in 6.0 mi SE 10.4 mph 19.6 mph 0.00 in   Overcast
11:53 PM 35.1 °F 27.4 °F 33.1 °F 92% 29.58 in 5.0 mi SSE 10.4 mph 18.4 mph 0.00 in   Overcast